Weather History for Omaha Offutt, NE

Change the Weather History Date:

Saturday, January 26, 2013

  Actual Average Record
Temperature  
Mean Temperature 31 °F -  
Max Temperature 46 °F 31 °F 68 °F (2002)
Min Temperature 16 °F 15 °F -2 °F (1997)
Degree Days  
Heating Degree Days 34    
Moisture  
Dew Point 19 °F    
Average Humidity 64    
Maximum Humidity 88    
Minimum Humidity 41    
Precipitation  
Precipitation 0.00 in - - ()
Sea Level Pressure  
Sea Level Pressure 30.20 in    
Wind  
Wind Speed 9 mph (ESE)    
Max Wind Speed 16 mph    
Max Gust Speed -    
Visibility 10 miles    
Events      
Averages and records for this station are not official NWS values.
T = Trace of Precipitation, MM = Missing Value Source: NWS Daily Summary

Daily Weather History Graph

Daily Weather History Graph

Search for Another Location

Airport:

Trip Planner

Search our weather history database for the weather conditions in past years. The results will help you decide how hot, cold, wet, or windy it might be!

Date:

Astronomy

Jan. 26, 2013 Rise Set
Actual Time 7:39 AM CST 5:33 PM CST
Civil Twilight 7:10 AM CST 6:02 PM CST
Nautical Twilight 6:36 AM CST 6:36 PM CST
Astronomical Twilight 6:04 AM CST 7:08 PM CST
Moon 5:29 PM CST (1/26) 6:57 AM CST (1/26)
Length of Visible Light 10h 52m
Length of Day
9h 53m
Full, 100% of the Moon is Illuminated
Jan 26
Full
Jan 26
Full
Feb 3
Last Quarter
Feb 10
New
Feb 17
First Quarter

Hourly Weather History & Observations

Time (CST) Temp. Windchill Dew Point Humidity Pressure Visibility Wind Dir Wind Speed Gust Speed Precip Events Conditions
12:55 AM 23.7 °F 15.6 °F 20.1 °F 86% 30.28 in 10.0 mi ENE 6.9 mph - N/A   Clear
1:55 AM 20.7 °F 14.2 °F 17.6 °F 88% 30.29 in 10.0 mi ENE 4.6 mph - N/A   Clear
2:55 AM 18.9 °F 9.8 °F 15.1 °F 85% 30.29 in 10.0 mi ENE 6.9 mph - N/A   Clear
3:55 AM 17.1 °F 8.7 °F 13.6 °F 86% 30.28 in 10.0 mi ENE 5.8 mph - N/A   Clear
4:55 AM 17.2 °F 8.9 °F 12.9 °F 83% 30.27 in 10.0 mi East 5.8 mph - N/A   Clear
5:55 AM 17.6 °F 8.2 °F 12.7 °F 81% 30.30 in 10.0 mi East 6.9 mph - N/A   Clear
6:55 AM 16.9 °F 6.4 °F 10.2 °F 75% 30.30 in 10.0 mi East 8.1 mph - N/A   Clear
7:55 AM 16.2 °F 4.7 °F 8.8 °F 73% 30.30 in 10.0 mi East 9.2 mph - N/A   Clear
8:55 AM 18.7 °F 5.7 °F 10.6 °F 71% 30.31 in 10.0 mi ESE 12.7 mph - N/A   Clear
9:55 AM 23.4 °F 10.1 °F 14.2 °F 68% 30.30 in 10.0 mi ESE 16.1 mph - N/A   Clear
10:55 AM 28.0 °F 16.5 °F 16.7 °F 62% 30.28 in 10.0 mi ESE 15.0 mph - N/A   Clear
11:55 AM 33.6 °F 25.0 °F 19.0 °F 55% 30.25 in 10.0 mi SE 11.5 mph - N/A   Clear
12:55 PM 36.0 °F 27.1 °F 19.0 °F 50% 30.21 in 10.0 mi SE 13.8 mph - N/A   Scattered Clouds
1:55 PM 41.4 °F 33.6 °F 21.6 °F 45% 30.15 in 10.0 mi SE 15.0 mph - N/A   Mostly Cloudy
2:55 PM 46.4 °F 40.7 °F 23.5 °F 41% 30.14 in 10.0 mi SSE 12.7 mph - N/A   Clear
3:55 PM 46.8 °F - 25.0 °F 43% 30.11 in 10.0 mi SE 16.1 mph - N/A   Clear
4:55 PM 45.1 °F 39.9 °F 25.2 °F 46% 30.09 in 10.0 mi SE 10.4 mph - N/A   Partly Cloudy
5:55 PM 40.1 °F 33.2 °F 24.6 °F 54% 30.09 in 10.0 mi ESE 11.5 mph - N/A   Clear
6:55 PM 38.7 °F 30.5 °F 23.9 °F 55% 30.09 in 10.0 mi ESE 13.8 mph - N/A   Clear
7:55 PM 36.9 °F 29.6 °F 23.7 °F 59% 30.09 in 10.0 mi ESE 10.4 mph - N/A   Clear
8:55 PM 36.9 °F 29.6 °F 23.5 °F 59% 30.09 in 10.0 mi ESE 10.4 mph - N/A   Clear
9:55 PM 36.5 °F 28.2 °F 23.2 °F 59% 30.07 in 10.0 mi ESE 12.7 mph - N/A   Partly Cloudy
10:55 PM 36.3 °F 29.5 °F 22.8 °F 58% 30.07 in 10.0 mi SE 9.2 mph - N/A   Mostly Cloudy
11:55 PM 37.6 °F 30.0 °F 23.2 °F 56% 30.04 in 10.0 mi ESE 11.5 mph - N/A   Overcast